Вернуться в каталог

CZ-6A DEB

АктивенSSO
NORAD 54445·DEBRIS·🇨🇳 China

Запущен Nov 11, 2022 с Taiyuan Satellite Launch Center

Loading…

Ближайшие Пролёты (ближайшие 24 часа)

TLE

СвежийSource: Space-Track

Эпоха: Sep 14, 2026, 21:41 UTC

1 54445U 22151FV  26257.90373940  .00000597  00000-0  22769-3 0  9990
2 54445  98.7277 302.6379 0053811  83.6931 277.0378 14.33636533200476

Отслеживайте CZ-6A DEB в реальном времени с AllMySat

Download on the App Store